[[{"header":{"parameterUnit":"m.s-1","parameterCategory":1,"la1":30.2991,"la2":30.254,"lo1":-89.0895,"lo2":-89.0444,"dy":0.0017,"dx":0.0017,"nx":28,"ny":28,"refTime":"2024-04-22T21:00:00:Z","depth":0,"parameterNumber":2,"parameterNumberName":"U-component_of_WINDS"},"data":[0,0,0,0,0,0,0,0,0,0,0,0,0,0,0,0,0,0,0,0,0,0,0,0,0,0,0,0,0,0,0,0,0,0,0,0,0,0,0,0,0,0,0,0,0,0,0,0,0,0,0,0,0,0,0,0,0,0,-3.7229,-3.723,0,-3.7309,-3.731,-3.7311,-3.7288,-3.7287,-3.7285,-3.7283,-3.7367,-3.7371,-3.7375,0,0,0,0,0,0,0,0,0,0,0,0,0,-3.7058,-3.7061,-3.7229,-3.723,-3.7231,-3.7309,-3.731,-3.7311,-3.7288,-3.7286,-3.7284,-3.7283,-3.7366,-3.7371,-3.7375,0,0,0,0,0,0,0,0,0,0,0,0,0,-3.7135,-3.7062,-3.7228,-3.7229,-3.723,-3.7309,-3.731,-3.7311,-3.7289,-3.7286,-3.7284,-3.7282,-3.7365,-3.737,-3.7376,-3.746,0,0,-3.7393,-3.7395,0,0,0,0,0,0,0,0,-3.713,-3.7141,-3.7228,-3.7229,-3.723,-3.7286,-3.728,-3.7361,-3.7289,-3.7266,-3.7283,-3.728,-3.7342,-3.735,-3.737,-3.7464,-3.7467,-3.7393,-3.7397,-3.7399,-3.7401,0,0,0,0,0,0,0,-3.7125,-3.7137,-3.726,-3.7229,-3.723,-3.7226,-3.7234,-3.7296,-3.7317,-3.7268,-3.7267,-3.7277,-3.7343,-3.7365,-3.7372,-3.7468,-3.7393,-3.7398,-3.7402,-3.7404,-3.7635,-3.7637,0,0,0,0,0,0,-3.7119,-3.7133,-3.7258,-3.7263,-3.7173,-3.7231,-3.724,-3.7271,-3.7317,-3.7321,-3.7279,-3.7275,-3.7356,-3.7365,-3.7375,-3.7475,-3.7399,-3.7405,-3.7408,-3.7632,-3.7635,-3.7638,0,0,0,0,0,0,-3.7115,-3.713,-3.7255,-3.7198,-3.7213,-3.7236,-3.7271,-3.7273,-3.7295,-3.7324,-3.7328,-3.7297,-3.7355,-3.7367,-3.7439,-3.7478,-3.7407,-3.7412,-3.7629,-3.7633,-3.7637,-3.7678,0,0,0,0,0,0,-3.711,-3.7129,-3.716,-3.7198,-3.7216,-3.7316,-3.7273,-3.7277,-3.7305,-3.7301,-3.7343,-3.7347,-3.7354,-3.743,-3.7444,-3.7485,-3.7417,-3.7625,-3.7631,-3.7636,-3.7673,-3.7683,-3.7691,0,0,0,0,0,-3.7104,-3.7169,-3.7162,-3.7177,-3.7256,-3.7319,-3.7329,-3.7335,-3.7308,-3.7341,-3.7359,-3.7346,-3.7472,-3.7438,-3.7453,-3.7496,-3.7623,-3.7629,-3.7635,-3.7669,-3.7681,-3.7691,0,0,0,0,0,0,-3.7135,-3.7174,-3.7167,-3.7246,-3.7279,-3.7315,-3.7355,-3.7347,-3.7389,-3.7384,-3.739,-3.7399,-3.7473,-3.7492,-3.7453,-3.758,-3.7544,-3.7553,-3.7564,-3.7576,-3.7585,-3.7577,-3.7421,0,0,0,0,0,-3.7151,-3.7198,-3.723,-3.7297,-3.7314,-3.7332,-3.736,-3.7361,-3.7396,-3.741,-3.7434,-3.7469,-3.7516,-3.7547,-3.7593,-3.7676,-3.7685,-3.7714,-3.7723,-3.773,-3.7738,-3.7783,-3.7796,-3.7659,-3.7659,-3.7659,0,0,-3.7185,-3.7212,-3.7241,-3.7304,-3.733,-3.7379,-3.7344,-3.7397,-3.7434,-3.7418,-3.7487,-3.7506,-3.7546,-3.7623,-3.7659,-3.7642,-3.7778,-3.7738,-3.7743,-3.7747,-3.779,-3.7803,-3.7815,-3.7663,-3.7662,-3.7661,0,0,-3.7271,-3.7296,-3.7354,-3.7381,-3.7421,-3.7433,-3.7447,-3.7484,-3.7496,-3.7565,-3.7554,-3.7598,-3.768,-3.7708,-3.7734,-3.7832,-3.7821,-3.7846,-3.7893,-3.7937,-3.7948,-3.7957,-3.7991,-3.8003,-3.7854,-3.7854,-3.7855,0,-3.7307,-3.738,-3.7385,-3.7439,-3.7467,-3.7456,-3.7515,-3.7541,-3.7594,-3.7613,-3.7593,-3.7696,-3.7722,-3.7805,-3.7829,-3.7851,-3.7867,-3.7841,-3.7946,-3.7955,-3.7964,-3.7997,-3.801,-3.7857,-3.7857,-3.7857,-3.7856,0,-3.7423,-3.7473,-3.7516,-3.7566,-3.7599,-3.7655,-3.767,-3.7703,-3.7702,-3.7716,-3.7787,-3.7818,-3.7869,-3.7889,-3.7889,-3.7974,-3.7961,-3.7944,-3.7907,-3.798,-3.801,-3.8023,-3.7861,-3.786,-3.7859,-3.7859,0,0,-3.7528,-3.7582,-3.7597,-3.7619,-3.7663,-3.7703,-3.7759,-3.7809,-3.7836,-3.7874,-3.7921,-3.7991,-3.7975,-3.8004,-3.8007,-3.8046,-3.812,-3.8024,-3.8025,-3.8039,-3.8214,-3.8225,-3.824,-3.8114,-3.8117,-3.8119,-3.821,0,-3.7617,-3.7714,-3.7721,-3.781,-3.7857,-3.7847,-3.7896,-3.7929,-3.7944,-3.7987,-3.8004,-3.8053,-3.8028,-3.8045,-3.8084,-3.8103,-3.8155,-3.8097,-3.8158,-3.816,-3.8146,-3.8256,-3.8268,-3.8353,-3.8222,-3.8224,-3.8226,0,-3.7732,-3.7772,-3.7865,-3.7902,-3.7922,-3.7966,-3.8012,-3.8053,-3.809,-3.8098,-3.813,-3.8129,-3.8187,-3.815,-3.8231,-3.8191,-3.8217,-3.823,-3.8234,-3.8238,-3.8196,-3.8261,-3.838,-3.8392,-3.8245,-3.8243,-3.8242,0,-3.7798,-3.7875,-3.7941,-3.7961,-3.8006,-3.8037,-3.8057,-3.8092,-3.8121,-3.8162,-3.8181,-3.8229,-3.8254,-3.8292,-3.8303,-3.8275,-3.8383,-3.8347,-3.8391,-3.8391,-3.8412,-3.8411,-3.8535,-3.8432,-3.8432,-3.8432,-3.8432,0,-3.7894,-3.7951,-3.7971,-3.8011,-3.8075,-3.8083,-3.8146,-3.8165,-3.8196,-3.824,-3.8236,-3.8277,-3.8291,-3.8335,-3.8345,-3.8409,-3.8422,-3.843,-3.8431,-3.8429,-3.8428,-3.8445,-3.8438,-3.8435,-3.8435,-3.8434,-3.8433,0,-3.7977,-3.7993,-3.8064,-3.8101,-3.8112,-3.8157,-3.8189,-3.8228,-3.8243,-3.8299,-3.8312,-3.8336,-3.8388,-3.8403,-3.8466,-3.8473,-3.8548,-3.8545,-3.8535,-3.8534,-3.8577,-3.8572,-3.8715,-3.8734,-3.862,-3.8621,-3.8622,0,-3.8037,-3.808,-3.8122,-3.8151,-3.8173,-3.8219,-3.8249,-3.826,-3.8291,-3.8337,-3.8371,-3.8422,-3.8463,-3.8546,-3.8569,-3.8617,-3.8614,-3.8661,-3.8622,-3.8618,-3.8613,-3.861,-3.8614,-3.8668,-3.8669,-3.867,-3.8671,0,-3.8141,-3.8146,-3.8189,-3.8235,-3.8271,-3.8307,-3.8343,-3.8367,-3.8383,-3.8419,-3.8471,-3.8503,-3.8567,-3.8617,-3.8666,-3.8688,-3.8682,-3.8684,-3.8696,-3.8693,-3.8685,-3.8688,-3.8553,-3.868,-3.8679,-3.8678,-3.8678,-3.8678,-3.8213,-3.8251,-3.8286,-3.8334,-3.8362,-3.8395,-3.8433,-3.8453,-3.8497,-3.8549,-3.8553,-3.861,-3.8647,-3.8711,-3.8736,-3.8781,-3.8767,-3.8786,-3.879,-3.8794,-3.8796,-3.8679,-3.879,-3.879,-3.879,-3.8789,-3.8789,0,-3.8315,-3.8337,-3.8381,-3.8431,-3.8469,-3.846,-3.8499,-3.8531,-3.8581,-3.8616,-3.8656,-3.8717,-3.8766,-3.8794,-3.8843,-3.8874,-3.8872,-3.8886,-3.8883,-3.8888,-3.8806,-3.879,-3.8886,-3.8886,-3.8886,-3.8886,-3.8886,-3.8886,-3.8372,-3.8435,-3.8446,-3.8523,-3.8546,-3.86,-3.8623,-3.8654,-3.8682,-3.8749,-3.879,-3.8807,-3.8839,-3.8891,-3.8936,-3.8943,-3.8961,-3.8976,-3.8981,-3.8904,-3.8894,-3.8884,-3.8869,-3.898,-3.898,-3.9059,-3.9059,-3.906]},{"header":{"parameterUnit":"m.s-1","parameterCategory":1,"la1":30.2991,"la2":30.254,"lo1":-89.0895,"lo2":-89.0444,"dy":0.0017,"dx":0.0017,"nx":28,"ny":28,"refTime":"2024-04-22T21:00:00:Z","depth":0,"parameterNumber":3,"parameterNumberName":"V-component_of_WINDS"},"data":[0,0,0,0,0,0,0,0,0,0,0,0,0,0,0,0,0,0,0,0,0,0,0,0,0,0,0,0,0,0,0,0,0,0,0,0,0,0,0,0,0,0,0,0,0,0,0,0,0,0,0,0,0,0,0,0,0,0,3.6941,3.6941,0,3.6995,3.6995,3.6996,3.6966,3.6965,3.6963,3.6962,3.7018,3.7021,3.7023,0,0,0,0,0,0,0,0,0,0,0,0,0,3.6813,3.6816,3.6941,3.6941,3.6942,3.6995,3.6995,3.6996,3.6967,3.6965,3.6963,3.6961,3.7017,3.702,3.7024,0,0,0,0,0,0,0,0,0,0,0,0,0,3.6868,3.6816,3.6941,3.6934,3.6934,3.6995,3.6995,3.6996,3.6967,3.6965,3.6963,3.6961,3.7016,3.702,3.7024,3.7095,0,0,3.7037,3.7039,0,0,0,0,0,0,0,0,3.6865,3.6873,3.6934,3.6934,3.6934,3.6972,3.6971,3.7029,3.6968,3.6954,3.6962,3.6959,3.7004,3.7009,3.7024,3.7098,3.71,3.7038,3.704,3.7042,3.7043,0,0,0,0,0,0,0,3.6861,3.687,3.6962,3.6935,3.6935,3.6928,3.6934,3.6982,3.6991,3.6955,3.6953,3.696,3.7004,3.702,3.7025,3.7101,3.7037,3.7041,3.7044,3.7046,3.7235,3.7238,0,0,0,0,0,0,3.6858,3.6867,3.696,3.6964,3.6893,3.6932,3.6938,3.6962,3.699,3.6993,3.6962,3.6959,3.7014,3.702,3.7027,3.7112,3.7042,3.7046,3.7048,3.7233,3.7236,3.7239,0,0,0,0,0,0,3.6855,3.6866,3.6958,3.6915,3.6926,3.6937,3.6964,3.6964,3.698,3.6995,3.6997,3.6977,3.7013,3.7021,3.7078,3.7114,3.7048,3.7052,3.723,3.7234,3.7237,3.7282,0,0,0,0,0,0,3.6852,3.6865,3.6892,3.6916,3.6929,3.7008,3.6966,3.6967,3.6988,3.6984,3.701,3.7012,3.7011,3.7072,3.7083,3.7118,3.7055,3.7227,3.7232,3.7236,3.7278,3.7287,3.7295,0,0,0,0,0,3.6847,3.6903,3.6894,3.6905,3.6962,3.701,3.7018,3.7016,3.6991,3.7018,3.7028,3.7011,3.7108,3.7078,3.709,3.7127,3.7225,3.723,3.7236,3.7274,3.7285,3.7295,0,0,0,0,0,0,3.6883,3.6906,3.6896,3.6961,3.6984,3.7005,3.7039,3.7028,3.7058,3.7053,3.705,3.7056,3.7116,3.7127,3.7093,3.7198,3.7163,3.7171,3.7188,3.7199,3.7207,3.7203,3.7059,0,0,0,0,0,3.6898,3.6935,3.6953,3.7009,3.7021,3.7028,3.7049,3.7046,3.707,3.7079,3.7093,3.7117,3.7153,3.7177,3.721,3.728,3.7285,3.7311,3.732,3.7327,3.7334,3.7371,3.7383,3.7257,3.7257,3.7257,0,0,3.693,3.6948,3.6971,3.7017,3.7034,3.7073,3.7037,3.7079,3.7108,3.7086,3.714,3.7152,3.7178,3.7242,3.7271,3.7253,3.737,3.7334,3.734,3.7343,3.7378,3.739,3.7401,3.7261,3.726,3.7259,0,0,3.7009,3.7025,3.7073,3.7092,3.7119,3.7124,3.7135,3.7159,3.7166,3.7221,3.7205,3.724,3.7301,3.7321,3.7339,3.7426,3.7412,3.7437,3.7482,3.7519,3.7529,3.7538,3.7568,3.758,3.7444,3.7444,3.7445,0,3.7045,3.7102,3.71,3.7143,3.7164,3.7146,3.7195,3.7213,3.725,3.7265,3.7246,3.7323,3.734,3.7408,3.7429,3.7444,3.7458,3.7434,3.7528,3.7537,3.7545,3.7574,3.7586,3.7447,3.7447,3.7447,3.7446,0,3.7146,3.7186,3.7222,3.7258,3.7283,3.7329,3.7333,3.7359,3.7354,3.7361,3.7417,3.7437,3.7475,3.7491,3.7486,3.7558,3.7547,3.7528,3.7492,3.756,3.7587,3.7598,3.7451,3.745,3.7449,3.7449,0,0,3.7246,3.7281,3.7294,3.7311,3.734,3.7371,3.7417,3.7454,3.7475,3.7502,3.754,3.7594,3.7576,3.7597,3.7595,3.7627,3.7695,3.7604,3.7605,3.762,3.7775,3.7789,3.7802,3.7686,3.7688,3.769,3.7773,0,3.7326,3.7405,3.7405,3.7479,3.7516,3.75,3.754,3.7563,3.7571,3.7604,3.7613,3.7651,3.7625,3.7637,3.7669,3.768,3.7726,3.7674,3.7721,3.7723,3.7714,3.7816,3.783,3.7907,3.7783,3.7785,3.7787,0,3.7429,3.7459,3.7536,3.756,3.7576,3.7612,3.7646,3.7678,3.7703,3.7707,3.7731,3.7724,3.777,3.7735,3.7799,3.7764,3.7784,3.7792,3.7795,3.7798,3.7758,3.7821,3.7932,3.7943,3.7803,3.7802,3.7801,0,3.7494,3.7554,3.7608,3.7622,3.7652,3.7678,3.7691,3.7715,3.7737,3.7767,3.7782,3.7817,3.7836,3.7864,3.7867,3.784,3.7932,3.7896,3.7936,3.7936,3.7955,3.7953,3.8069,3.7969,3.7969,3.7969,3.7968,0,3.7582,3.763,3.7637,3.767,3.7724,3.7723,3.7776,3.7788,3.7809,3.7844,3.7834,3.7867,3.7869,3.7904,3.7906,3.7959,3.7968,3.7973,3.7972,3.7973,3.7972,3.7985,3.7979,3.7972,3.7971,3.7971,3.797,0,3.7663,3.767,3.7728,3.7752,3.7759,3.7797,3.7818,3.7849,3.7857,3.7902,3.7912,3.7924,3.7965,3.797,3.8018,3.8019,3.8083,3.8078,3.8074,3.8073,3.8112,3.8108,3.8239,3.8256,3.8146,3.8147,3.8148,0,3.7719,3.7755,3.7783,3.7806,3.7821,3.7858,3.7881,3.7882,3.7907,3.7939,3.7967,3.8006,3.8037,3.8102,3.8115,3.8151,3.8146,3.819,3.8152,3.8151,3.8146,3.8144,3.8147,3.8197,3.8198,3.8199,3.82,0,3.7816,3.7818,3.7851,3.7886,3.7914,3.7941,3.7967,3.7987,3.7992,3.802,3.8061,3.8085,3.8133,3.8172,3.8208,3.8223,3.8212,3.8212,3.8223,3.8223,3.822,3.8222,3.8093,3.8209,3.8208,3.8207,3.8207,3.8206,3.7885,3.7917,3.7942,3.7979,3.7999,3.8024,3.8055,3.8067,3.8101,3.814,3.8139,3.8184,3.821,3.8257,3.8274,3.8309,3.8295,3.8311,3.8315,3.8319,3.8322,3.8215,3.8316,3.8316,3.8316,3.8315,3.8315,0,3.7982,3.7997,3.8032,3.8068,3.8098,3.8087,3.8115,3.8141,3.818,3.8205,3.8236,3.8283,3.8321,3.8338,3.8375,3.8401,3.8397,3.841,3.8408,3.8411,3.8333,3.832,3.8413,3.8413,3.8413,3.8413,3.8413,3.8413,3.8035,3.8088,3.8093,3.8156,3.8171,3.8215,3.8232,3.8255,3.8275,3.8328,3.8359,3.837,3.8392,3.8431,3.8465,3.8469,3.8483,3.8498,3.85,3.8427,3.8417,3.8407,3.8394,3.8502,3.8502,3.8575,3.8576,3.8576]}]]